User: anonymous
Location: Unspecified
(0.0000°N, 0.0000°E)
Time: 14:05:17
(UTC+00:00)
Language:

Aussat K3 - Orbit

View from above orbital plane
View from above orbital plane
View from above satellite
View from above satellite

Ground track
Ground track

The orbit data is extracted from the following two-line orbital elements,

1 18350U 87078A   14243.10287699 -.00000029  00000-0  00000+0 0  1547
2 18350 013.7809 029.0434 0003105 227.1152 153.7743 00.98906191 97917
Epoch (UTC): 31 August 2014 02:28:08
Eccentricity: 0.0003105
inclination: 13.7809°
perigee height: 36160 km
apogee height: 36186 km
right ascension of ascending node: 29.0434°
argument of perigee: 227.1152°
revolutions per day: 0.98906191
mean anomaly at epoch: 153.7743°
orbit number at epoch: 9791

The dashed part of the orbit path shows where the satellite is in the earth's shadow,  

DLR